Index of /20260417/WXO-DD/model_rdps/10km/00/056
Name Last modified Size Description
Parent Directory -
20260417T00Z_MSC_RDPS_AbsoluteVorticity_IsbL-0250_RLatLon0.09_PT056H.grib2 2026-04-17 02:55 600K
20260417T00Z_MSC_RDPS_AbsoluteVorticity_IsbL-0500_RLatLon0.09_PT056H.grib2 2026-04-17 02:55 566K
20260417T00Z_MSC_RDPS_AbsoluteVorticity_IsbL-0700_RLatLon0.09_PT056H.grib2 2026-04-17 02:55 609K
20260417T00Z_MSC_RDPS_AbsoluteVorticity_IsbL-0850_RLatLon0.09_PT056H.grib2 2026-04-17 02:55 779K
20260417T00Z_MSC_RDPS_AirTemp_AGL-120m_RLatLon0.09_PT056H.grib2 2026-04-17 02:55 381K
20260417T00Z_MSC_RDPS_AirTemp_AGL-2m_RLatLon0.09_PT056H.grib2 2026-04-17 02:55 642K
20260417T00Z_MSC_RDPS_AirTemp_AGL-40m_RLatLon0.09_PT056H.grib2 2026-04-17 02:55 397K
20260417T00Z_MSC_RDPS_AirTemp_AGL-80m_RLatLon0.09_PT056H.grib2 2026-04-17 02:55 388K
20260417T00Z_MSC_RDPS_AirTemp_IsbL-0001_RLatLon0.09_PT056H.grib2 2026-04-17 02:55 292K
20260417T00Z_MSC_RDPS_AirTemp_IsbL-0005_RLatLon0.09_PT056H.grib2 2026-04-17 02:55 334K
20260417T00Z_MSC_RDPS_AirTemp_IsbL-0010_RLatLon0.09_PT056H.grib2 2026-04-17 02:55 342K
20260417T00Z_MSC_RDPS_AirTemp_IsbL-0020_RLatLon0.09_PT056H.grib2 2026-04-17 02:55 321K
20260417T00Z_MSC_RDPS_AirTemp_IsbL-0030_RLatLon0.09_PT056H.grib2 2026-04-17 02:55 343K
20260417T00Z_MSC_RDPS_AirTemp_IsbL-0050_RLatLon0.09_PT056H.grib2 2026-04-17 02:55 323K
20260417T00Z_MSC_RDPS_AirTemp_IsbL-0100_RLatLon0.09_PT056H.grib2 2026-04-17 02:55 421K
20260417T00Z_MSC_RDPS_AirTemp_IsbL-0150_RLatLon0.09_PT056H.grib2 2026-04-17 02:55 417K
20260417T00Z_MSC_RDPS_AirTemp_IsbL-0175_RLatLon0.09_PT056H.grib2 2026-04-17 02:55 411K
20260417T00Z_MSC_RDPS_AirTemp_IsbL-0200_RLatLon0.09_PT056H.grib2 2026-04-17 02:55 415K
20260417T00Z_MSC_RDPS_AirTemp_IsbL-0225_RLatLon0.09_PT056H.grib2 2026-04-17 02:55 416K
20260417T00Z_MSC_RDPS_AirTemp_IsbL-0250_RLatLon0.09_PT056H.grib2 2026-04-17 02:55 424K
20260417T00Z_MSC_RDPS_AirTemp_IsbL-0275_RLatLon0.09_PT056H.grib2 2026-04-17 02:55 404K
20260417T00Z_MSC_RDPS_AirTemp_IsbL-0300_RLatLon0.09_PT056H.grib2 2026-04-17 02:55 408K
20260417T00Z_MSC_RDPS_AirTemp_IsbL-0350_RLatLon0.09_PT056H.grib2 2026-04-17 02:55 420K
20260417T00Z_MSC_RDPS_AirTemp_IsbL-0400_RLatLon0.09_PT056H.grib2 2026-04-17 02:55 421K
20260417T00Z_MSC_RDPS_AirTemp_IsbL-0450_RLatLon0.09_PT056H.grib2 2026-04-17 02:55 430K
20260417T00Z_MSC_RDPS_AirTemp_IsbL-0500_RLatLon0.09_PT056H.grib2 2026-04-17 02:55 407K
20260417T00Z_MSC_RDPS_AirTemp_IsbL-0550_RLatLon0.09_PT056H.grib2 2026-04-17 02:55 426K
20260417T00Z_MSC_RDPS_AirTemp_IsbL-0600_RLatLon0.09_PT056H.grib2 2026-04-17 02:55 445K
20260417T00Z_MSC_RDPS_AirTemp_IsbL-0650_RLatLon0.09_PT056H.grib2 2026-04-17 02:55 459K
20260417T00Z_MSC_RDPS_AirTemp_IsbL-0700_RLatLon0.09_PT056H.grib2 2026-04-17 02:55 486K
20260417T00Z_MSC_RDPS_AirTemp_IsbL-0750_RLatLon0.09_PT056H.grib2 2026-04-17 02:55 526K
20260417T00Z_MSC_RDPS_AirTemp_IsbL-0800_RLatLon0.09_PT056H.grib2 2026-04-17 02:55 583K
20260417T00Z_MSC_RDPS_AirTemp_IsbL-0850_RLatLon0.09_PT056H.grib2 2026-04-17 02:55 508K
20260417T00Z_MSC_RDPS_AirTemp_IsbL-0875_RLatLon0.09_PT056H.grib2 2026-04-17 02:55 522K
20260417T00Z_MSC_RDPS_AirTemp_IsbL-0900_RLatLon0.09_PT056H.grib2 2026-04-17 02:55 524K
20260417T00Z_MSC_RDPS_AirTemp_IsbL-0925_RLatLon0.09_PT056H.grib2 2026-04-17 02:55 518K
20260417T00Z_MSC_RDPS_AirTemp_IsbL-0950_RLatLon0.09_PT056H.grib2 2026-04-17 02:55 517K
20260417T00Z_MSC_RDPS_AirTemp_IsbL-0970_RLatLon0.09_PT056H.grib2 2026-04-17 02:55 515K
20260417T00Z_MSC_RDPS_AirTemp_IsbL-0985_RLatLon0.09_PT056H.grib2 2026-04-17 02:55 508K
20260417T00Z_MSC_RDPS_AirTemp_IsbL-1000_RLatLon0.09_PT056H.grib2 2026-04-17 02:55 493K
20260417T00Z_MSC_RDPS_AirTemp_IsbL-1015_RLatLon0.09_PT056H.grib2 2026-04-17 02:55 506K
20260417T00Z_MSC_RDPS_Albedo_Sfc_RLatLon0.09_PT056H.grib2 2026-04-17 02:55 167K
20260417T00Z_MSC_RDPS_CAPE_Sfc_RLatLon0.09_PT056H.grib2 2026-04-17 02:55 1.6M
20260417T00Z_MSC_RDPS_CIN_Sfc_RLatLon0.09_PT056H.grib2 2026-04-17 02:55 1.1M
20260417T00Z_MSC_RDPS_CloudWater_EAtm_RLatLon0.09_PT056H.grib2 2026-04-17 02:55 211K
20260417T00Z_MSC_RDPS_ConvectivePrecip-Accum_Sfc_RLatLon0.09_PT056H.grib2 2026-04-17 02:55 1.1M
20260417T00Z_MSC_RDPS_DewPointDepression_AGL-2m_RLatLon0.09_PT056H.grib2 2026-04-17 02:55 395K
20260417T00Z_MSC_RDPS_DewPointDepression_IsbL-0001_RLatLon0.09_PT056H.grib2 2026-04-17 02:55 193
20260417T00Z_MSC_RDPS_DewPointDepression_IsbL-0005_RLatLon0.09_PT056H.grib2 2026-04-17 02:55 193
20260417T00Z_MSC_RDPS_DewPointDepression_IsbL-0010_RLatLon0.09_PT056H.grib2 2026-04-17 02:55 193
20260417T00Z_MSC_RDPS_DewPointDepression_IsbL-0020_RLatLon0.09_PT056H.grib2 2026-04-17 02:55 193
20260417T00Z_MSC_RDPS_DewPointDepression_IsbL-0030_RLatLon0.09_PT056H.grib2 2026-04-17 02:55 1.6K
20260417T00Z_MSC_RDPS_DewPointDepression_IsbL-0050_RLatLon0.09_PT056H.grib2 2026-04-17 02:55 117K
20260417T00Z_MSC_RDPS_DewPointDepression_IsbL-0100_RLatLon0.09_PT056H.grib2 2026-04-17 02:55 122K
20260417T00Z_MSC_RDPS_DewPointDepression_IsbL-0150_RLatLon0.09_PT056H.grib2 2026-04-17 02:55 148K
20260417T00Z_MSC_RDPS_DewPointDepression_IsbL-0175_RLatLon0.09_PT056H.grib2 2026-04-17 02:55 178K
20260417T00Z_MSC_RDPS_DewPointDepression_IsbL-0200_RLatLon0.09_PT056H.grib2 2026-04-17 02:55 209K
20260417T00Z_MSC_RDPS_DewPointDepression_IsbL-0225_RLatLon0.09_PT056H.grib2 2026-04-17 02:55 247K
20260417T00Z_MSC_RDPS_DewPointDepression_IsbL-0250_RLatLon0.09_PT056H.grib2 2026-04-17 02:55 289K
20260417T00Z_MSC_RDPS_DewPointDepression_IsbL-0275_RLatLon0.09_PT056H.grib2 2026-04-17 02:55 297K
20260417T00Z_MSC_RDPS_DewPointDepression_IsbL-0300_RLatLon0.09_PT056H.grib2 2026-04-17 02:55 314K
20260417T00Z_MSC_RDPS_DewPointDepression_IsbL-0350_RLatLon0.09_PT056H.grib2 2026-04-17 02:55 321K
20260417T00Z_MSC_RDPS_DewPointDepression_IsbL-0400_RLatLon0.09_PT056H.grib2 2026-04-17 02:55 339K
20260417T00Z_MSC_RDPS_DewPointDepression_IsbL-0450_RLatLon0.09_PT056H.grib2 2026-04-17 02:55 351K
20260417T00Z_MSC_RDPS_DewPointDepression_IsbL-0500_RLatLon0.09_PT056H.grib2 2026-04-17 02:55 356K
20260417T00Z_MSC_RDPS_DewPointDepression_IsbL-0550_RLatLon0.09_PT056H.grib2 2026-04-17 02:55 365K
20260417T00Z_MSC_RDPS_DewPointDepression_IsbL-0600_RLatLon0.09_PT056H.grib2 2026-04-17 02:55 374K
20260417T00Z_MSC_RDPS_DewPointDepression_IsbL-0650_RLatLon0.09_PT056H.grib2 2026-04-17 02:55 381K
20260417T00Z_MSC_RDPS_DewPointDepression_IsbL-0700_RLatLon0.09_PT056H.grib2 2026-04-17 02:55 392K
20260417T00Z_MSC_RDPS_DewPointDepression_IsbL-0750_RLatLon0.09_PT056H.grib2 2026-04-17 02:55 414K
20260417T00Z_MSC_RDPS_DewPointDepression_IsbL-0800_RLatLon0.09_PT056H.grib2 2026-04-17 02:55 446K
20260417T00Z_MSC_RDPS_DewPointDepression_IsbL-0850_RLatLon0.09_PT056H.grib2 2026-04-17 02:55 462K
20260417T00Z_MSC_RDPS_DewPointDepression_IsbL-0875_RLatLon0.09_PT056H.grib2 2026-04-17 02:55 461K
20260417T00Z_MSC_RDPS_DewPointDepression_IsbL-0900_RLatLon0.09_PT056H.grib2 2026-04-17 02:55 452K
20260417T00Z_MSC_RDPS_DewPointDepression_IsbL-0925_RLatLon0.09_PT056H.grib2 2026-04-17 02:55 444K
20260417T00Z_MSC_RDPS_DewPointDepression_IsbL-0950_RLatLon0.09_PT056H.grib2 2026-04-17 02:55 439K
20260417T00Z_MSC_RDPS_DewPointDepression_IsbL-0970_RLatLon0.09_PT056H.grib2 2026-04-17 02:55 434K
20260417T00Z_MSC_RDPS_DewPointDepression_IsbL-0985_RLatLon0.09_PT056H.grib2 2026-04-17 02:55 431K
20260417T00Z_MSC_RDPS_DewPointDepression_IsbL-1000_RLatLon0.09_PT056H.grib2 2026-04-17 02:55 427K
20260417T00Z_MSC_RDPS_DewPointDepression_IsbL-1015_RLatLon0.09_PT056H.grib2 2026-04-17 02:55 417K
20260417T00Z_MSC_RDPS_DewPoint_AGL-2m_RLatLon0.09_PT056H.grib2 2026-04-17 02:55 312K
20260417T00Z_MSC_RDPS_DownwardLongwaveRadiationFlux-Accum_Sfc_RLatLon0.09_PT056H.grib2 2026-04-17 02:55 383K
20260417T00Z_MSC_RDPS_DownwardShortwaveRadiationFlux-Accum_NTAtm_RLatLon0.09_PT056H.grib2 2026-04-17 02:55 105K
20260417T00Z_MSC_RDPS_DownwardShortwaveRadiationFlux-Accum_Sfc_RLatLon0.09_PT056H.grib2 2026-04-17 02:55 552K
20260417T00Z_MSC_RDPS_FreezingRain-Accum1h_Sfc_RLatLon0.09_PT056H.grib2 2026-04-17 02:55 34K
20260417T00Z_MSC_RDPS_FreezingRain-Accum_Sfc_RLatLon0.09_PT056H.grib2 2026-04-17 02:55 176K
20260417T00Z_MSC_RDPS_GeopotentialHeight_IsbL-0001_RLatLon0.09_PT056H.grib2 2026-04-17 02:55 269K
20260417T00Z_MSC_RDPS_GeopotentialHeight_IsbL-0005_RLatLon0.09_PT056H.grib2 2026-04-17 02:55 237K
20260417T00Z_MSC_RDPS_GeopotentialHeight_IsbL-0010_RLatLon0.09_PT056H.grib2 2026-04-17 02:55 313K
20260417T00Z_MSC_RDPS_GeopotentialHeight_IsbL-0020_RLatLon0.09_PT056H.grib2 2026-04-17 02:55 341K
20260417T00Z_MSC_RDPS_GeopotentialHeight_IsbL-0030_RLatLon0.09_PT056H.grib2 2026-04-17 02:55 311K
20260417T00Z_MSC_RDPS_GeopotentialHeight_IsbL-0050_RLatLon0.09_PT056H.grib2 2026-04-17 02:55 314K
20260417T00Z_MSC_RDPS_GeopotentialHeight_IsbL-0100_RLatLon0.09_PT056H.grib2 2026-04-17 02:55 286K
20260417T00Z_MSC_RDPS_GeopotentialHeight_IsbL-0150_RLatLon0.09_PT056H.grib2 2026-04-17 02:55 259K
20260417T00Z_MSC_RDPS_GeopotentialHeight_IsbL-0175_RLatLon0.09_PT056H.grib2 2026-04-17 02:55 262K
20260417T00Z_MSC_RDPS_GeopotentialHeight_IsbL-0200_RLatLon0.09_PT056H.grib2 2026-04-17 02:55 265K
20260417T00Z_MSC_RDPS_GeopotentialHeight_IsbL-0225_RLatLon0.09_PT056H.grib2 2026-04-17 02:55 267K
20260417T00Z_MSC_RDPS_GeopotentialHeight_IsbL-0250_RLatLon0.09_PT056H.grib2 2026-04-17 02:55 268K
20260417T00Z_MSC_RDPS_GeopotentialHeight_IsbL-0275_RLatLon0.09_PT056H.grib2 2026-04-17 02:55 267K
20260417T00Z_MSC_RDPS_GeopotentialHeight_IsbL-0300_RLatLon0.09_PT056H.grib2 2026-04-17 02:55 266K
20260417T00Z_MSC_RDPS_GeopotentialHeight_IsbL-0350_RLatLon0.09_PT056H.grib2 2026-04-17 02:55 232K
20260417T00Z_MSC_RDPS_GeopotentialHeight_IsbL-0400_RLatLon0.09_PT056H.grib2 2026-04-17 02:55 228K
20260417T00Z_MSC_RDPS_GeopotentialHeight_IsbL-0450_RLatLon0.09_PT056H.grib2 2026-04-17 02:55 298K
20260417T00Z_MSC_RDPS_GeopotentialHeight_IsbL-0500_RLatLon0.09_PT056H.grib2 2026-04-17 02:55 293K
20260417T00Z_MSC_RDPS_GeopotentialHeight_IsbL-0550_RLatLon0.09_PT056H.grib2 2026-04-17 02:55 290K
20260417T00Z_MSC_RDPS_GeopotentialHeight_IsbL-0600_RLatLon0.09_PT056H.grib2 2026-04-17 02:55 286K
20260417T00Z_MSC_RDPS_GeopotentialHeight_IsbL-0650_RLatLon0.09_PT056H.grib2 2026-04-17 02:55 285K
20260417T00Z_MSC_RDPS_GeopotentialHeight_IsbL-0700_RLatLon0.09_PT056H.grib2 2026-04-17 02:55 257K
20260417T00Z_MSC_RDPS_GeopotentialHeight_IsbL-0750_RLatLon0.09_PT056H.grib2 2026-04-17 02:55 259K
20260417T00Z_MSC_RDPS_GeopotentialHeight_IsbL-0800_RLatLon0.09_PT056H.grib2 2026-04-17 02:55 268K
20260417T00Z_MSC_RDPS_GeopotentialHeight_IsbL-0850_RLatLon0.09_PT056H.grib2 2026-04-17 02:55 275K
20260417T00Z_MSC_RDPS_GeopotentialHeight_IsbL-0875_RLatLon0.09_PT056H.grib2 2026-04-17 02:55 277K
20260417T00Z_MSC_RDPS_GeopotentialHeight_IsbL-0900_RLatLon0.09_PT056H.grib2 2026-04-17 02:55 280K
20260417T00Z_MSC_RDPS_GeopotentialHeight_IsbL-0925_RLatLon0.09_PT056H.grib2 2026-04-17 02:55 284K
20260417T00Z_MSC_RDPS_GeopotentialHeight_IsbL-0950_RLatLon0.09_PT056H.grib2 2026-04-17 02:55 286K
20260417T00Z_MSC_RDPS_GeopotentialHeight_IsbL-0970_RLatLon0.09_PT056H.grib2 2026-04-17 02:55 289K
20260417T00Z_MSC_RDPS_GeopotentialHeight_IsbL-0985_RLatLon0.09_PT056H.grib2 2026-04-17 02:55 295K
20260417T00Z_MSC_RDPS_GeopotentialHeight_IsbL-1000_RLatLon0.09_PT056H.grib2 2026-04-17 02:55 305K
20260417T00Z_MSC_RDPS_GeopotentialHeight_IsbL-1015_RLatLon0.09_PT056H.grib2 2026-04-17 02:55 317K
20260417T00Z_MSC_RDPS_Humidex_Sfc_RLatLon0.09_PT056H.grib2 2026-04-17 02:55 2.4M
20260417T00Z_MSC_RDPS_IcePellets-Accum1h_Sfc_RLatLon0.09_PT056H.grib2 2026-04-17 02:55 9.5K
20260417T00Z_MSC_RDPS_IcePellets-Accum_Sfc_RLatLon0.09_PT056H.grib2 2026-04-17 02:55 67K
20260417T00Z_MSC_RDPS_KIndex_Sfc_RLatLon0.09_PT056H.grib2 2026-04-17 02:55 2.5M
20260417T00Z_MSC_RDPS_LatentHeatNetFlux_Sfc_RLatLon0.09_PT056H.grib2 2026-04-17 02:55 316K
20260417T00Z_MSC_RDPS_LiftedIndex-MU-VT_IsbL-0500_RLatLon0.09_PT056H.grib2 2026-04-17 02:55 2.4M
20260417T00Z_MSC_RDPS_NetLongwaveRadiationFlux-Accum_Sfc_RLatLon0.09_PT056H.grib2 2026-04-17 02:55 564K
20260417T00Z_MSC_RDPS_NetShortwaveRadiationFlux-Accum_Sfc_RLatLon0.09_PT056H.grib2 2026-04-17 02:55 562K
20260417T00Z_MSC_RDPS_PlanetaryBoundaryLayerHeight_Sfc_RLatLon0.09_PT056H.grib2 2026-04-17 02:55 1.1M
20260417T00Z_MSC_RDPS_Precip-Accum1h_Sfc_RLatLon0.09_PT056H.grib2 2026-04-17 02:55 1.3M
20260417T00Z_MSC_RDPS_Precip-Accum_Sfc_RLatLon0.09_PT056H.grib2 2026-04-17 02:55 2.1M
20260417T00Z_MSC_RDPS_PrecipRate_Sfc_RLatLon0.09_PT056H.grib2 2026-04-17 02:55 196K
20260417T00Z_MSC_RDPS_PrecipType-Instant_Sfc_RLatLon0.09_PT056H.grib2 2026-04-17 02:55 616K
20260417T00Z_MSC_RDPS_Pressure-Trend3h_Sfc_RLatLon0.09_PT056H.grib2 2026-04-17 02:55 1.2M
20260417T00Z_MSC_RDPS_Pressure_MSL_RLatLon0.09_PT056H.grib2 2026-04-17 02:55 330K
20260417T00Z_MSC_RDPS_Pressure_PVU-1.5_RLatLon0.09_PT056H.grib2 2026-04-17 02:55 2.3M
20260417T00Z_MSC_RDPS_Pressure_PVU-1_RLatLon0.09_PT056H.grib2 2026-04-17 02:55 2.4M
20260417T00Z_MSC_RDPS_Pressure_PVU-2_RLatLon0.09_PT056H.grib2 2026-04-17 02:55 2.4M
20260417T00Z_MSC_RDPS_Pressure_Sfc_RLatLon0.09_PT056H.grib2 2026-04-17 02:55 501K
20260417T00Z_MSC_RDPS_RadiativeTemp_Sfc_RLatLon0.09_PT056H.grib2 2026-04-17 02:55 307K
20260417T00Z_MSC_RDPS_Rain-Accum1h_Sfc_RLatLon0.09_PT056H.grib2 2026-04-17 02:55 641K
20260417T00Z_MSC_RDPS_Rain-Accum_Sfc_RLatLon0.09_PT056H.grib2 2026-04-17 02:55 1.6M
20260417T00Z_MSC_RDPS_RelativeHumidity_AGL-2m_RLatLon0.09_PT056H.grib2 2026-04-17 02:55 1.0M
20260417T00Z_MSC_RDPS_RelativeHumidity_IsbL-0010_RLatLon0.09_PT056H.grib2 2026-04-17 02:55 639K
20260417T00Z_MSC_RDPS_RelativeHumidity_IsbL-0020_RLatLon0.09_PT056H.grib2 2026-04-17 02:55 534K
20260417T00Z_MSC_RDPS_RelativeHumidity_IsbL-0030_RLatLon0.09_PT056H.grib2 2026-04-17 02:55 465K
20260417T00Z_MSC_RDPS_RelativeHumidity_IsbL-0050_RLatLon0.09_PT056H.grib2 2026-04-17 02:55 290K
20260417T00Z_MSC_RDPS_RelativeHumidity_IsbL-0100_RLatLon0.09_PT056H.grib2 2026-04-17 02:55 361K
20260417T00Z_MSC_RDPS_RelativeHumidity_IsbL-0150_RLatLon0.09_PT056H.grib2 2026-04-17 02:55 386K
20260417T00Z_MSC_RDPS_RelativeHumidity_IsbL-0175_RLatLon0.09_PT056H.grib2 2026-04-17 02:55 471K
20260417T00Z_MSC_RDPS_RelativeHumidity_IsbL-0200_RLatLon0.09_PT056H.grib2 2026-04-17 02:55 549K
20260417T00Z_MSC_RDPS_RelativeHumidity_IsbL-0225_RLatLon0.09_PT056H.grib2 2026-04-17 02:55 609K
20260417T00Z_MSC_RDPS_RelativeHumidity_IsbL-0250_RLatLon0.09_PT056H.grib2 2026-04-17 02:55 674K
20260417T00Z_MSC_RDPS_RelativeHumidity_IsbL-0275_RLatLon0.09_PT056H.grib2 2026-04-17 02:55 697K
20260417T00Z_MSC_RDPS_RelativeHumidity_IsbL-0300_RLatLon0.09_PT056H.grib2 2026-04-17 02:55 737K
20260417T00Z_MSC_RDPS_RelativeHumidity_IsbL-0350_RLatLon0.09_PT056H.grib2 2026-04-17 02:55 758K
20260417T00Z_MSC_RDPS_RelativeHumidity_IsbL-0400_RLatLon0.09_PT056H.grib2 2026-04-17 02:55 778K
20260417T00Z_MSC_RDPS_RelativeHumidity_IsbL-0450_RLatLon0.09_PT056H.grib2 2026-04-17 02:55 790K
20260417T00Z_MSC_RDPS_RelativeHumidity_IsbL-0500_RLatLon0.09_PT056H.grib2 2026-04-17 02:55 807K
20260417T00Z_MSC_RDPS_RelativeHumidity_IsbL-0550_RLatLon0.09_PT056H.grib2 2026-04-17 02:55 814K
20260417T00Z_MSC_RDPS_RelativeHumidity_IsbL-0600_RLatLon0.09_PT056H.grib2 2026-04-17 02:55 832K
20260417T00Z_MSC_RDPS_RelativeHumidity_IsbL-0650_RLatLon0.09_PT056H.grib2 2026-04-17 02:55 853K
20260417T00Z_MSC_RDPS_RelativeHumidity_IsbL-0700_RLatLon0.09_PT056H.grib2 2026-04-17 02:55 866K
20260417T00Z_MSC_RDPS_RelativeHumidity_IsbL-0750_RLatLon0.09_PT056H.grib2 2026-04-17 02:55 915K
20260417T00Z_MSC_RDPS_RelativeHumidity_IsbL-0800_RLatLon0.09_PT056H.grib2 2026-04-17 02:55 1.0M
20260417T00Z_MSC_RDPS_RelativeHumidity_IsbL-0850_RLatLon0.09_PT056H.grib2 2026-04-17 02:55 1.0M
20260417T00Z_MSC_RDPS_RelativeHumidity_IsbL-0875_RLatLon0.09_PT056H.grib2 2026-04-17 02:55 1.0M
20260417T00Z_MSC_RDPS_RelativeHumidity_IsbL-0900_RLatLon0.09_PT056H.grib2 2026-04-17 02:55 1.1M
20260417T00Z_MSC_RDPS_RelativeHumidity_IsbL-0925_RLatLon0.09_PT056H.grib2 2026-04-17 02:55 1.1M
20260417T00Z_MSC_RDPS_RelativeHumidity_IsbL-0950_RLatLon0.09_PT056H.grib2 2026-04-17 02:55 1.1M
20260417T00Z_MSC_RDPS_RelativeHumidity_IsbL-0970_RLatLon0.09_PT056H.grib2 2026-04-17 02:55 1.1M
20260417T00Z_MSC_RDPS_RelativeHumidity_IsbL-0985_RLatLon0.09_PT056H.grib2 2026-04-17 02:55 1.0M
20260417T00Z_MSC_RDPS_RelativeHumidity_IsbL-1000_RLatLon0.09_PT056H.grib2 2026-04-17 02:55 1.0M
20260417T00Z_MSC_RDPS_RelativeHumidity_IsbL-1015_RLatLon0.09_PT056H.grib2 2026-04-17 02:55 1.0M
20260417T00Z_MSC_RDPS_Runoff-Accum_Sfc_RLatLon0.09_PT056H.grib2 2026-04-17 02:55 60K
20260417T00Z_MSC_RDPS_SWEATIndex_Sfc_RLatLon0.09_PT056H.grib2 2026-04-17 02:55 2.6M
20260417T00Z_MSC_RDPS_SeeingIndex_EAtm_RLatLon0.09_PT056H.grib2 2026-04-17 02:55 1.0M
20260417T00Z_MSC_RDPS_SensibleHeatNetFlux_Sfc_RLatLon0.09_PT056H.grib2 2026-04-17 02:55 302K
20260417T00Z_MSC_RDPS_ShowalterIndex_IsbL-0500_RLatLon0.09_PT056H.grib2 2026-04-17 02:55 2.6M
20260417T00Z_MSC_RDPS_SkyTransparencyIndex_EAtm_RLatLon0.09_PT056H.grib2 2026-04-17 02:55 727K
20260417T00Z_MSC_RDPS_Snow-Accum1h_Sfc_RLatLon0.09_PT056H.grib2 2026-04-17 02:55 470K
20260417T00Z_MSC_RDPS_Snow-Accum_Sfc_RLatLon0.09_PT056H.grib2 2026-04-17 02:55 826K
20260417T00Z_MSC_RDPS_SnowDensity_Sfc_RLatLon0.09_PT056H.grib2 2026-04-17 02:55 182K
20260417T00Z_MSC_RDPS_SnowDepth_Sfc_RLatLon0.09_PT056H.grib2 2026-04-17 02:55 729K
20260417T00Z_MSC_RDPS_SoilTemp_DBS-0to10cm_RLatLon0.09_PT056H.grib2 2026-04-17 02:55 233K
20260417T00Z_MSC_RDPS_SoilTemp_Sfc_RLatLon0.09_PT056H.grib2 2026-04-17 02:55 267K
20260417T00Z_MSC_RDPS_SoilVolumetricIceContent_Sfc_RLatLon0.09_PT056H.grib2 2026-04-17 02:55 176K
20260417T00Z_MSC_RDPS_SoilVolumetricWaterContent_DBS-0to10cm_RLatLon0.09_PT056H.grib2 2026-04-17 02:55 247K
20260417T00Z_MSC_RDPS_SoilVolumetricWaterContent_DBS-0to1cm_RLatLon0.09_PT056H.grib2 2026-04-17 02:55 336K
20260417T00Z_MSC_RDPS_SpecificHumidity_AGL-120m_RLatLon0.09_PT056H.grib2 2026-04-17 02:55 476K
20260417T00Z_MSC_RDPS_SpecificHumidity_AGL-2m_RLatLon0.09_PT056H.grib2 2026-04-17 02:55 636K
20260417T00Z_MSC_RDPS_SpecificHumidity_AGL-40m_RLatLon0.09_PT056H.grib2 2026-04-17 02:55 479K
20260417T00Z_MSC_RDPS_SpecificHumidity_AGL-80m_RLatLon0.09_PT056H.grib2 2026-04-17 02:55 477K
20260417T00Z_MSC_RDPS_SpecificHumidity_IsbL-0001_RLatLon0.09_PT056H.grib2 2026-04-17 02:55 304K
20260417T00Z_MSC_RDPS_SpecificHumidity_IsbL-0005_RLatLon0.09_PT056H.grib2 2026-04-17 02:55 341K
20260417T00Z_MSC_RDPS_SpecificHumidity_IsbL-0010_RLatLon0.09_PT056H.grib2 2026-04-17 02:55 375K
20260417T00Z_MSC_RDPS_SpecificHumidity_IsbL-0020_RLatLon0.09_PT056H.grib2 2026-04-17 02:55 371K
20260417T00Z_MSC_RDPS_SpecificHumidity_IsbL-0030_RLatLon0.09_PT056H.grib2 2026-04-17 02:55 426K
20260417T00Z_MSC_RDPS_SpecificHumidity_IsbL-0050_RLatLon0.09_PT056H.grib2 2026-04-17 02:55 461K
20260417T00Z_MSC_RDPS_SpecificHumidity_IsbL-0100_RLatLon0.09_PT056H.grib2 2026-04-17 02:55 494K
20260417T00Z_MSC_RDPS_SpecificHumidity_IsbL-0150_RLatLon0.09_PT056H.grib2 2026-04-17 02:55 546K
20260417T00Z_MSC_RDPS_SpecificHumidity_IsbL-0175_RLatLon0.09_PT056H.grib2 2026-04-17 02:55 527K
20260417T00Z_MSC_RDPS_SpecificHumidity_IsbL-0200_RLatLon0.09_PT056H.grib2 2026-04-17 02:55 543K
20260417T00Z_MSC_RDPS_SpecificHumidity_IsbL-0225_RLatLon0.09_PT056H.grib2 2026-04-17 02:55 544K
20260417T00Z_MSC_RDPS_SpecificHumidity_IsbL-0250_RLatLon0.09_PT056H.grib2 2026-04-17 02:55 541K
20260417T00Z_MSC_RDPS_SpecificHumidity_IsbL-0275_RLatLon0.09_PT056H.grib2 2026-04-17 02:55 456K
20260417T00Z_MSC_RDPS_SpecificHumidity_IsbL-0300_RLatLon0.09_PT056H.grib2 2026-04-17 02:55 524K
20260417T00Z_MSC_RDPS_SpecificHumidity_IsbL-0350_RLatLon0.09_PT056H.grib2 2026-04-17 02:55 517K
20260417T00Z_MSC_RDPS_SpecificHumidity_IsbL-0400_RLatLon0.09_PT056H.grib2 2026-04-17 02:55 504K
20260417T00Z_MSC_RDPS_SpecificHumidity_IsbL-0450_RLatLon0.09_PT056H.grib2 2026-04-17 02:55 563K
20260417T00Z_MSC_RDPS_SpecificHumidity_IsbL-0500_RLatLon0.09_PT056H.grib2 2026-04-17 02:55 499K
20260417T00Z_MSC_RDPS_SpecificHumidity_IsbL-0550_RLatLon0.09_PT056H.grib2 2026-04-17 02:55 554K
20260417T00Z_MSC_RDPS_SpecificHumidity_IsbL-0600_RLatLon0.09_PT056H.grib2 2026-04-17 02:55 621K
20260417T00Z_MSC_RDPS_SpecificHumidity_IsbL-0650_RLatLon0.09_PT056H.grib2 2026-04-17 02:55 537K
20260417T00Z_MSC_RDPS_SpecificHumidity_IsbL-0700_RLatLon0.09_PT056H.grib2 2026-04-17 02:55 577K
20260417T00Z_MSC_RDPS_SpecificHumidity_IsbL-0750_RLatLon0.09_PT056H.grib2 2026-04-17 02:55 628K
20260417T00Z_MSC_RDPS_SpecificHumidity_IsbL-0800_RLatLon0.09_PT056H.grib2 2026-04-17 02:55 700K
20260417T00Z_MSC_RDPS_SpecificHumidity_IsbL-0850_RLatLon0.09_PT056H.grib2 2026-04-17 02:55 775K
20260417T00Z_MSC_RDPS_SpecificHumidity_IsbL-0875_RLatLon0.09_PT056H.grib2 2026-04-17 02:55 797K
20260417T00Z_MSC_RDPS_SpecificHumidity_IsbL-0900_RLatLon0.09_PT056H.grib2 2026-04-17 02:55 809K
20260417T00Z_MSC_RDPS_SpecificHumidity_IsbL-0925_RLatLon0.09_PT056H.grib2 2026-04-17 02:55 814K
20260417T00Z_MSC_RDPS_SpecificHumidity_IsbL-0950_RLatLon0.09_PT056H.grib2 2026-04-17 02:55 814K
20260417T00Z_MSC_RDPS_SpecificHumidity_IsbL-0970_RLatLon0.09_PT056H.grib2 2026-04-17 02:55 807K
20260417T00Z_MSC_RDPS_SpecificHumidity_IsbL-0985_RLatLon0.09_PT056H.grib2 2026-04-17 02:55 800K
20260417T00Z_MSC_RDPS_SpecificHumidity_IsbL-1000_RLatLon0.09_PT056H.grib2 2026-04-17 02:55 793K
20260417T00Z_MSC_RDPS_SpecificHumidity_IsbL-1015_RLatLon0.09_PT056H.grib2 2026-04-17 02:55 646K
20260417T00Z_MSC_RDPS_SpecificHumidity_Sfc_RLatLon0.09_PT056H.grib2 2026-04-17 02:55 281K
20260417T00Z_MSC_RDPS_StormRelativeHelicity_EtaL-10000_RLatLon0.09_PT056H.grib2 2026-04-17 02:55 1.1M
20260417T00Z_MSC_RDPS_StormSeverityIndex_EtaL-10000_RLatLon0.09_PT056H.grib2 2026-04-17 02:55 1.2M
20260417T00Z_MSC_RDPS_Thickness_IsbL-0850to0700_RLatLon0.09_PT056H.grib2 2026-04-17 02:55 180K
20260417T00Z_MSC_RDPS_Thickness_IsbL-1000to0500_RLatLon0.09_PT056H.grib2 2026-04-17 02:55 201K
20260417T00Z_MSC_RDPS_Thickness_IsbL-1000to0850_RLatLon0.09_PT056H.grib2 2026-04-17 02:55 186K
20260417T00Z_MSC_RDPS_TotalCloudCover_Sfc_RLatLon0.09_PT056H.grib2 2026-04-17 02:55 675K
20260417T00Z_MSC_RDPS_TotalTotalsIndex_Sfc_RLatLon0.09_PT056H.grib2 2026-04-17 02:55 2.4M
20260417T00Z_MSC_RDPS_UVIndex-ClearSky_Sfc_RLatLon0.09_PT056H.grib2 2026-04-17 02:55 77K
20260417T00Z_MSC_RDPS_UVIndex_Sfc_RLatLon0.09_PT056H.grib2 2026-04-17 02:55 138K
20260417T00Z_MSC_RDPS_UpwardLongwaveRadiationFlux_NTAtm_RLatLon0.09_PT056H.grib2 2026-04-17 02:55 486K
20260417T00Z_MSC_RDPS_UpwardShortwaveRadiationFlux_NTAtm_RLatLon0.09_PT056H.grib2 2026-04-17 02:55 125K
20260417T00Z_MSC_RDPS_VerticalVelocity_IsbL-0250_RLatLon0.09_PT056H.grib2 2026-04-17 02:55 556K
20260417T00Z_MSC_RDPS_VerticalVelocity_IsbL-0500_RLatLon0.09_PT056H.grib2 2026-04-17 02:55 547K
20260417T00Z_MSC_RDPS_VerticalVelocity_IsbL-0700_RLatLon0.09_PT056H.grib2 2026-04-17 02:55 595K
20260417T00Z_MSC_RDPS_VerticalVelocity_IsbL-0850_RLatLon0.09_PT056H.grib2 2026-04-17 02:55 697K
20260417T00Z_MSC_RDPS_VerticalWindShear_EtaL-6500_RLatLon0.09_PT056H.grib2 2026-04-17 02:55 1.1M
20260417T00Z_MSC_RDPS_WindChill_Sfc_RLatLon0.09_PT056H.grib2 2026-04-17 02:55 1.3M
20260417T00Z_MSC_RDPS_WindDir_AGL-10m_RLatLon0.09_PT056H.grib2 2026-04-17 02:55 972K
20260417T00Z_MSC_RDPS_WindDir_AGL-120m_RLatLon0.09_PT056H.grib2 2026-04-17 02:55 597K
20260417T00Z_MSC_RDPS_WindDir_AGL-40m_RLatLon0.09_PT056H.grib2 2026-04-17 02:55 633K
20260417T00Z_MSC_RDPS_WindDir_AGL-80m_RLatLon0.09_PT056H.grib2 2026-04-17 02:55 611K
20260417T00Z_MSC_RDPS_WindDir_IsbL-0001_RLatLon0.09_PT056H.grib2 2026-04-17 02:55 276K
20260417T00Z_MSC_RDPS_WindDir_IsbL-0005_RLatLon0.09_PT056H.grib2 2026-04-17 02:55 363K
20260417T00Z_MSC_RDPS_WindDir_IsbL-0010_RLatLon0.09_PT056H.grib2 2026-04-17 02:55 356K
20260417T00Z_MSC_RDPS_WindDir_IsbL-0020_RLatLon0.09_PT056H.grib2 2026-04-17 02:55 382K
20260417T00Z_MSC_RDPS_WindDir_IsbL-0030_RLatLon0.09_PT056H.grib2 2026-04-17 02:55 384K
20260417T00Z_MSC_RDPS_WindDir_IsbL-0050_RLatLon0.09_PT056H.grib2 2026-04-17 02:55 419K
20260417T00Z_MSC_RDPS_WindDir_IsbL-0100_RLatLon0.09_PT056H.grib2 2026-04-17 02:55 393K
20260417T00Z_MSC_RDPS_WindDir_IsbL-0150_RLatLon0.09_PT056H.grib2 2026-04-17 02:55 394K
20260417T00Z_MSC_RDPS_WindDir_IsbL-0175_RLatLon0.09_PT056H.grib2 2026-04-17 02:55 418K
20260417T00Z_MSC_RDPS_WindDir_IsbL-0200_RLatLon0.09_PT056H.grib2 2026-04-17 02:55 435K
20260417T00Z_MSC_RDPS_WindDir_IsbL-0225_RLatLon0.09_PT056H.grib2 2026-04-17 02:55 435K
20260417T00Z_MSC_RDPS_WindDir_IsbL-0250_RLatLon0.09_PT056H.grib2 2026-04-17 02:55 431K
20260417T00Z_MSC_RDPS_WindDir_IsbL-0275_RLatLon0.09_PT056H.grib2 2026-04-17 02:55 448K
20260417T00Z_MSC_RDPS_WindDir_IsbL-0300_RLatLon0.09_PT056H.grib2 2026-04-17 02:55 443K
20260417T00Z_MSC_RDPS_WindDir_IsbL-0350_RLatLon0.09_PT056H.grib2 2026-04-17 02:55 468K
20260417T00Z_MSC_RDPS_WindDir_IsbL-0400_RLatLon0.09_PT056H.grib2 2026-04-17 02:55 486K
20260417T00Z_MSC_RDPS_WindDir_IsbL-0450_RLatLon0.09_PT056H.grib2 2026-04-17 02:55 507K
20260417T00Z_MSC_RDPS_WindDir_IsbL-0500_RLatLon0.09_PT056H.grib2 2026-04-17 02:55 533K
20260417T00Z_MSC_RDPS_WindDir_IsbL-0550_RLatLon0.09_PT056H.grib2 2026-04-17 02:55 556K
20260417T00Z_MSC_RDPS_WindDir_IsbL-0600_RLatLon0.09_PT056H.grib2 2026-04-17 02:55 585K
20260417T00Z_MSC_RDPS_WindDir_IsbL-0650_RLatLon0.09_PT056H.grib2 2026-04-17 02:55 620K
20260417T00Z_MSC_RDPS_WindDir_IsbL-0700_RLatLon0.09_PT056H.grib2 2026-04-17 02:55 664K
20260417T00Z_MSC_RDPS_WindDir_IsbL-0750_RLatLon0.09_PT056H.grib2 2026-04-17 02:55 705K
20260417T00Z_MSC_RDPS_WindDir_IsbL-0800_RLatLon0.09_PT056H.grib2 2026-04-17 02:55 770K
20260417T00Z_MSC_RDPS_WindDir_IsbL-0850_RLatLon0.09_PT056H.grib2 2026-04-17 02:55 840K
20260417T00Z_MSC_RDPS_WindDir_IsbL-0875_RLatLon0.09_PT056H.grib2 2026-04-17 02:55 869K
20260417T00Z_MSC_RDPS_WindDir_IsbL-0900_RLatLon0.09_PT056H.grib2 2026-04-17 02:55 890K
20260417T00Z_MSC_RDPS_WindDir_IsbL-0925_RLatLon0.09_PT056H.grib2 2026-04-17 02:55 900K
20260417T00Z_MSC_RDPS_WindDir_IsbL-0950_RLatLon0.09_PT056H.grib2 2026-04-17 02:55 899K
20260417T00Z_MSC_RDPS_WindDir_IsbL-0970_RLatLon0.09_PT056H.grib2 2026-04-17 02:55 907K
20260417T00Z_MSC_RDPS_WindDir_IsbL-0985_RLatLon0.09_PT056H.grib2 2026-04-17 02:55 920K
20260417T00Z_MSC_RDPS_WindDir_IsbL-1000_RLatLon0.09_PT056H.grib2 2026-04-17 02:55 941K
20260417T00Z_MSC_RDPS_WindDir_IsbL-1015_RLatLon0.09_PT056H.grib2 2026-04-17 02:55 962K
20260417T00Z_MSC_RDPS_WindGust-Max_AGL-10m_RLatLon0.09_PT056H.grib2 2026-04-17 02:55 971K
20260417T00Z_MSC_RDPS_WindGust-Min_AGL-10m_RLatLon0.09_PT056H.grib2 2026-04-17 02:55 1.0M
20260417T00Z_MSC_RDPS_WindGust_AGL-10m_RLatLon0.09_PT056H.grib2 2026-04-17 02:55 1.0M
20260417T00Z_MSC_RDPS_WindSpeed_AGL-10m_RLatLon0.09_PT056H.grib2 2026-04-17 02:55 854K
20260417T00Z_MSC_RDPS_WindSpeed_AGL-120m_RLatLon0.09_PT056H.grib2 2026-04-17 02:55 559K
20260417T00Z_MSC_RDPS_WindSpeed_AGL-40m_RLatLon0.09_PT056H.grib2 2026-04-17 02:55 552K
20260417T00Z_MSC_RDPS_WindSpeed_AGL-80m_RLatLon0.09_PT056H.grib2 2026-04-17 02:55 561K
20260417T00Z_MSC_RDPS_WindSpeed_IsbL-0001_RLatLon0.09_PT056H.grib2 2026-04-17 02:55 247K
20260417T00Z_MSC_RDPS_WindSpeed_IsbL-0005_RLatLon0.09_PT056H.grib2 2026-04-17 02:55 340K
20260417T00Z_MSC_RDPS_WindSpeed_IsbL-0010_RLatLon0.09_PT056H.grib2 2026-04-17 02:55 349K
20260417T00Z_MSC_RDPS_WindSpeed_IsbL-0020_RLatLon0.09_PT056H.grib2 2026-04-17 02:55 327K
20260417T00Z_MSC_RDPS_WindSpeed_IsbL-0030_RLatLon0.09_PT056H.grib2 2026-04-17 02:55 327K
20260417T00Z_MSC_RDPS_WindSpeed_IsbL-0050_RLatLon0.09_PT056H.grib2 2026-04-17 02:55 365K
20260417T00Z_MSC_RDPS_WindSpeed_IsbL-0100_RLatLon0.09_PT056H.grib2 2026-04-17 02:55 478K
20260417T00Z_MSC_RDPS_WindSpeed_IsbL-0150_RLatLon0.09_PT056H.grib2 2026-04-17 02:55 371K
20260417T00Z_MSC_RDPS_WindSpeed_IsbL-0175_RLatLon0.09_PT056H.grib2 2026-04-17 02:55 419K
20260417T00Z_MSC_RDPS_WindSpeed_IsbL-0200_RLatLon0.09_PT056H.grib2 2026-04-17 02:55 438K
20260417T00Z_MSC_RDPS_WindSpeed_IsbL-0225_RLatLon0.09_PT056H.grib2 2026-04-17 02:55 443K
20260417T00Z_MSC_RDPS_WindSpeed_IsbL-0250_RLatLon0.09_PT056H.grib2 2026-04-17 02:55 444K
20260417T00Z_MSC_RDPS_WindSpeed_IsbL-0275_RLatLon0.09_PT056H.grib2 2026-04-17 02:55 458K
20260417T00Z_MSC_RDPS_WindSpeed_IsbL-0300_RLatLon0.09_PT056H.grib2 2026-04-17 02:55 454K
20260417T00Z_MSC_RDPS_WindSpeed_IsbL-0350_RLatLon0.09_PT056H.grib2 2026-04-17 02:55 465K
20260417T00Z_MSC_RDPS_WindSpeed_IsbL-0400_RLatLon0.09_PT056H.grib2 2026-04-17 02:55 471K
20260417T00Z_MSC_RDPS_WindSpeed_IsbL-0450_RLatLon0.09_PT056H.grib2 2026-04-17 02:55 474K
20260417T00Z_MSC_RDPS_WindSpeed_IsbL-0500_RLatLon0.09_PT056H.grib2 2026-04-17 02:55 459K
20260417T00Z_MSC_RDPS_WindSpeed_IsbL-0550_RLatLon0.09_PT056H.grib2 2026-04-17 02:55 460K
20260417T00Z_MSC_RDPS_WindSpeed_IsbL-0600_RLatLon0.09_PT056H.grib2 2026-04-17 02:55 585K
20260417T00Z_MSC_RDPS_WindSpeed_IsbL-0650_RLatLon0.09_PT056H.grib2 2026-04-17 02:55 603K
20260417T00Z_MSC_RDPS_WindSpeed_IsbL-0700_RLatLon0.09_PT056H.grib2 2026-04-17 02:55 627K
20260417T00Z_MSC_RDPS_WindSpeed_IsbL-0750_RLatLon0.09_PT056H.grib2 2026-04-17 02:55 704K
20260417T00Z_MSC_RDPS_WindSpeed_IsbL-0800_RLatLon0.09_PT056H.grib2 2026-04-17 02:55 758K
20260417T00Z_MSC_RDPS_WindSpeed_IsbL-0850_RLatLon0.09_PT056H.grib2 2026-04-17 02:55 770K
20260417T00Z_MSC_RDPS_WindSpeed_IsbL-0875_RLatLon0.09_PT056H.grib2 2026-04-17 02:55 792K
20260417T00Z_MSC_RDPS_WindSpeed_IsbL-0900_RLatLon0.09_PT056H.grib2 2026-04-17 02:55 855K
20260417T00Z_MSC_RDPS_WindSpeed_IsbL-0925_RLatLon0.09_PT056H.grib2 2026-04-17 02:55 870K
20260417T00Z_MSC_RDPS_WindSpeed_IsbL-0950_RLatLon0.09_PT056H.grib2 2026-04-17 02:55 869K
20260417T00Z_MSC_RDPS_WindSpeed_IsbL-0970_RLatLon0.09_PT056H.grib2 2026-04-17 02:55 868K
20260417T00Z_MSC_RDPS_WindSpeed_IsbL-0985_RLatLon0.09_PT056H.grib2 2026-04-17 02:55 862K
20260417T00Z_MSC_RDPS_WindSpeed_IsbL-1000_RLatLon0.09_PT056H.grib2 2026-04-17 02:55 859K
20260417T00Z_MSC_RDPS_WindSpeed_IsbL-1015_RLatLon0.09_PT056H.grib2 2026-04-17 02:55 854K
20260417T00Z_MSC_RDPS_WindU_AGL-10m_RLatLon0.09_PT056H.grib2 2026-04-17 02:55 390K
20260417T00Z_MSC_RDPS_WindU_AGL-120m_RLatLon0.09_PT056H.grib2 2026-04-17 02:55 425K
20260417T00Z_MSC_RDPS_WindU_AGL-40m_RLatLon0.09_PT056H.grib2 2026-04-17 02:55 429K
20260417T00Z_MSC_RDPS_WindU_AGL-80m_RLatLon0.09_PT056H.grib2 2026-04-17 02:55 427K
20260417T00Z_MSC_RDPS_WindU_IsbL-0001_RLatLon0.09_PT056H.grib2 2026-04-17 02:55 288K
20260417T00Z_MSC_RDPS_WindU_IsbL-0005_RLatLon0.09_PT056H.grib2 2026-04-17 02:55 334K
20260417T00Z_MSC_RDPS_WindU_IsbL-0010_RLatLon0.09_PT056H.grib2 2026-04-17 02:55 313K
20260417T00Z_MSC_RDPS_WindU_IsbL-0020_RLatLon0.09_PT056H.grib2 2026-04-17 02:55 328K
20260417T00Z_MSC_RDPS_WindU_IsbL-0030_RLatLon0.09_PT056H.grib2 2026-04-17 02:55 329K
20260417T00Z_MSC_RDPS_WindU_IsbL-0050_RLatLon0.09_PT056H.grib2 2026-04-17 02:55 392K
20260417T00Z_MSC_RDPS_WindU_IsbL-0100_RLatLon0.09_PT056H.grib2 2026-04-17 02:55 334K
20260417T00Z_MSC_RDPS_WindU_IsbL-0150_RLatLon0.09_PT056H.grib2 2026-04-17 02:55 388K
20260417T00Z_MSC_RDPS_WindU_IsbL-0175_RLatLon0.09_PT056H.grib2 2026-04-17 02:55 413K
20260417T00Z_MSC_RDPS_WindU_IsbL-0200_RLatLon0.09_PT056H.grib2 2026-04-17 02:55 430K
20260417T00Z_MSC_RDPS_WindU_IsbL-0225_RLatLon0.09_PT056H.grib2 2026-04-17 02:55 337K
20260417T00Z_MSC_RDPS_WindU_IsbL-0250_RLatLon0.09_PT056H.grib2 2026-04-17 02:55 337K
20260417T00Z_MSC_RDPS_WindU_IsbL-0275_RLatLon0.09_PT056H.grib2 2026-04-17 02:55 349K
20260417T00Z_MSC_RDPS_WindU_IsbL-0300_RLatLon0.09_PT056H.grib2 2026-04-17 02:55 343K
20260417T00Z_MSC_RDPS_WindU_IsbL-0350_RLatLon0.09_PT056H.grib2 2026-04-17 02:55 351K
20260417T00Z_MSC_RDPS_WindU_IsbL-0400_RLatLon0.09_PT056H.grib2 2026-04-17 02:55 356K
20260417T00Z_MSC_RDPS_WindU_IsbL-0450_RLatLon0.09_PT056H.grib2 2026-04-17 02:55 361K
20260417T00Z_MSC_RDPS_WindU_IsbL-0500_RLatLon0.09_PT056H.grib2 2026-04-17 02:55 363K
20260417T00Z_MSC_RDPS_WindU_IsbL-0550_RLatLon0.09_PT056H.grib2 2026-04-17 02:55 365K
20260417T00Z_MSC_RDPS_WindU_IsbL-0600_RLatLon0.09_PT056H.grib2 2026-04-17 02:55 475K
20260417T00Z_MSC_RDPS_WindU_IsbL-0650_RLatLon0.09_PT056H.grib2 2026-04-17 02:55 491K
20260417T00Z_MSC_RDPS_WindU_IsbL-0700_RLatLon0.09_PT056H.grib2 2026-04-17 02:55 512K
20260417T00Z_MSC_RDPS_WindU_IsbL-0750_RLatLon0.09_PT056H.grib2 2026-04-17 02:55 540K
20260417T00Z_MSC_RDPS_WindU_IsbL-0800_RLatLon0.09_PT056H.grib2 2026-04-17 02:55 585K
20260417T00Z_MSC_RDPS_WindU_IsbL-0850_RLatLon0.09_PT056H.grib2 2026-04-17 02:55 633K
20260417T00Z_MSC_RDPS_WindU_IsbL-0875_RLatLon0.09_PT056H.grib2 2026-04-17 02:55 650K
20260417T00Z_MSC_RDPS_WindU_IsbL-0900_RLatLon0.09_PT056H.grib2 2026-04-17 02:55 663K
20260417T00Z_MSC_RDPS_WindU_IsbL-0925_RLatLon0.09_PT056H.grib2 2026-04-17 02:55 672K
20260417T00Z_MSC_RDPS_WindU_IsbL-0950_RLatLon0.09_PT056H.grib2 2026-04-17 02:55 667K
20260417T00Z_MSC_RDPS_WindU_IsbL-0970_RLatLon0.09_PT056H.grib2 2026-04-17 02:55 659K
20260417T00Z_MSC_RDPS_WindU_IsbL-0985_RLatLon0.09_PT056H.grib2 2026-04-17 02:55 658K
20260417T00Z_MSC_RDPS_WindU_IsbL-1000_RLatLon0.09_PT056H.grib2 2026-04-17 02:55 657K
20260417T00Z_MSC_RDPS_WindU_IsbL-1015_RLatLon0.09_PT056H.grib2 2026-04-17 02:55 653K
20260417T00Z_MSC_RDPS_WindV_AGL-10m_RLatLon0.09_PT056H.grib2 2026-04-17 02:55 436K
20260417T00Z_MSC_RDPS_WindV_AGL-120m_RLatLon0.09_PT056H.grib2 2026-04-17 02:55 539K
20260417T00Z_MSC_RDPS_WindV_AGL-40m_RLatLon0.09_PT056H.grib2 2026-04-17 02:55 543K
20260417T00Z_MSC_RDPS_WindV_AGL-80m_RLatLon0.09_PT056H.grib2 2026-04-17 02:55 541K
20260417T00Z_MSC_RDPS_WindV_IsbL-0001_RLatLon0.09_PT056H.grib2 2026-04-17 02:55 264K
20260417T00Z_MSC_RDPS_WindV_IsbL-0005_RLatLon0.09_PT056H.grib2 2026-04-17 02:55 334K
20260417T00Z_MSC_RDPS_WindV_IsbL-0010_RLatLon0.09_PT056H.grib2 2026-04-17 02:55 343K
20260417T00Z_MSC_RDPS_WindV_IsbL-0020_RLatLon0.09_PT056H.grib2 2026-04-17 02:55 359K
20260417T00Z_MSC_RDPS_WindV_IsbL-0030_RLatLon0.09_PT056H.grib2 2026-04-17 02:55 321K
20260417T00Z_MSC_RDPS_WindV_IsbL-0050_RLatLon0.09_PT056H.grib2 2026-04-17 02:55 358K
20260417T00Z_MSC_RDPS_WindV_IsbL-0100_RLatLon0.09_PT056H.grib2 2026-04-17 02:55 331K
20260417T00Z_MSC_RDPS_WindV_IsbL-0150_RLatLon0.09_PT056H.grib2 2026-04-17 02:55 387K
20260417T00Z_MSC_RDPS_WindV_IsbL-0175_RLatLon0.09_PT056H.grib2 2026-04-17 02:55 412K
20260417T00Z_MSC_RDPS_WindV_IsbL-0200_RLatLon0.09_PT056H.grib2 2026-04-17 02:55 334K
20260417T00Z_MSC_RDPS_WindV_IsbL-0225_RLatLon0.09_PT056H.grib2 2026-04-17 02:55 337K
20260417T00Z_MSC_RDPS_WindV_IsbL-0250_RLatLon0.09_PT056H.grib2 2026-04-17 02:55 338K
20260417T00Z_MSC_RDPS_WindV_IsbL-0275_RLatLon0.09_PT056H.grib2 2026-04-17 02:55 349K
20260417T00Z_MSC_RDPS_WindV_IsbL-0300_RLatLon0.09_PT056H.grib2 2026-04-17 02:55 345K
20260417T00Z_MSC_RDPS_WindV_IsbL-0350_RLatLon0.09_PT056H.grib2 2026-04-17 02:55 353K
20260417T00Z_MSC_RDPS_WindV_IsbL-0400_RLatLon0.09_PT056H.grib2 2026-04-17 02:55 356K
20260417T00Z_MSC_RDPS_WindV_IsbL-0450_RLatLon0.09_PT056H.grib2 2026-04-17 02:55 359K
20260417T00Z_MSC_RDPS_WindV_IsbL-0500_RLatLon0.09_PT056H.grib2 2026-04-17 02:55 361K
20260417T00Z_MSC_RDPS_WindV_IsbL-0550_RLatLon0.09_PT056H.grib2 2026-04-17 02:55 465K
20260417T00Z_MSC_RDPS_WindV_IsbL-0600_RLatLon0.09_PT056H.grib2 2026-04-17 02:55 473K
20260417T00Z_MSC_RDPS_WindV_IsbL-0650_RLatLon0.09_PT056H.grib2 2026-04-17 02:55 487K
20260417T00Z_MSC_RDPS_WindV_IsbL-0700_RLatLon0.09_PT056H.grib2 2026-04-17 02:55 508K
20260417T00Z_MSC_RDPS_WindV_IsbL-0750_RLatLon0.09_PT056H.grib2 2026-04-17 02:55 521K
20260417T00Z_MSC_RDPS_WindV_IsbL-0800_RLatLon0.09_PT056H.grib2 2026-04-17 02:55 579K
20260417T00Z_MSC_RDPS_WindV_IsbL-0850_RLatLon0.09_PT056H.grib2 2026-04-17 02:55 619K
20260417T00Z_MSC_RDPS_WindV_IsbL-0875_RLatLon0.09_PT056H.grib2 2026-04-17 02:55 638K
20260417T00Z_MSC_RDPS_WindV_IsbL-0900_RLatLon0.09_PT056H.grib2 2026-04-17 02:55 652K
20260417T00Z_MSC_RDPS_WindV_IsbL-0925_RLatLon0.09_PT056H.grib2 2026-04-17 02:55 662K
20260417T00Z_MSC_RDPS_WindV_IsbL-0950_RLatLon0.09_PT056H.grib2 2026-04-17 02:55 659K
20260417T00Z_MSC_RDPS_WindV_IsbL-0970_RLatLon0.09_PT056H.grib2 2026-04-17 02:55 656K
20260417T00Z_MSC_RDPS_WindV_IsbL-0985_RLatLon0.09_PT056H.grib2 2026-04-17 02:55 793K
20260417T00Z_MSC_RDPS_WindV_IsbL-1000_RLatLon0.09_PT056H.grib2 2026-04-17 02:55 789K
20260417T00Z_MSC_RDPS_WindV_IsbL-1015_RLatLon0.09_PT056H.grib2 2026-04-17 02:55 785K